Date String (YYYY-MM-DD hh:mm:ss) UTC,Instrument flags,absolute air pressure of the measurement (hPa),sample flow rate (lpm),inlet stack bypass flow (lpm),air temperature of the measurement (°C),ambient temperature measured by the external sensor (°C),aerosol sample conditioner tube jacket temperature (°C),OPC LED temperature (°C),internal box temperature (°C),relative humidity of the measurement (%),span deviation,mass concentration of particles derived from Lorenz-Mie calculation of OPC scattering (μg/m³),mass concentration of particles derived from Lorenz-Mie calculation of OPC scattering (μg/m³),mass concentration of particles derived from Lorenz-Mie calculation of OPC scattering (μg/m³)
DateTimeUTC,F1_M11,P_M11,Q1_M11,Q2_M11,T1_M11,T2_M11,T3_M11,T4_M11,T5_M11,U1_M11,ZSPAN_M11,X0_M11,X2_M11,X1_M11
2023-09-08 10:00:00,SystemResetWarning,0836.2,5.00,000.00,028.2,026.9,000.0,036.6,029.8,17.1,0000.0,0010.09,0003.47,0002.48
2023-09-08 10:01:00,SystemResetWarning,0836.2,5.00,000.00,028.2,026.9,000.0,036.6,029.8,17.0,0000.0,0010.10,0003.50,0002.54
2023-09-08 10:02:00,SystemResetWarning,0836.2,5.00,000.00,028.3,027.0,000.0,036.6,029.8,16.9,0000.0,0010.30,0003.52,0002.58
2023-09-08 10:03:00,SystemResetWarning,0836.2,5.00,000.00,028.3,027.0,000.0,036.6,029.8,16.9,0000.0,0010.50,0003.51,0002.59
2023-09-08 10:04:00,SystemResetWarning,0836.3,5.00,000.00,028.3,027.0,000.0,036.7,029.8,17.0,0000.0,0009.28,0003.48,0002.58
2023-09-08 10:05:00,SystemResetWarning,0836.2,4.99,000.00,028.3,027.0,000.0,036.7,029.9,17.0,0000.0,0008.77,0003.46,0002.59
2023-09-08 10:06:00,SystemResetWarning,0836.3,5.00,000.00,028.3,027.1,000.0,036.7,029.9,16.9,0000.0,0009.00,0003.49,0002.62
2023-09-08 10:07:00,SystemResetWarning,0836.3,5.01,000.00,028.3,027.1,000.0,036.7,029.9,16.8,0000.0,0008.99,0003.52,0002.65
2023-09-08 10:08:00,SystemResetWarning,0836.2,5.00,000.00,028.4,027.1,000.0,036.7,029.9,16.7,0000.0,0010.19,0003.59,0002.67
2023-09-08 10:09:00,SystemResetWarning,0836.2,5.00,000.00,028.4,027.1,000.0,036.7,030.0,16.7,0000.0,0010.87,0003.57,0002.67
2023-09-08 10:10:00,SystemResetWarning,0836.3,5.01,000.00,028.4,027.1,000.0,036.7,030.0,16.6,0000.0,0010.68,0003.57,0002.66
2023-09-08 10:11:00,SystemResetWarning,0836.3,5.00,000.00,028.4,027.1,000.0,036.7,030.0,16.5,0000.0,0010.93,0003.59,0002.66
2023-09-08 10:12:00,SystemResetWarning,0836.2,5.00,000.00,028.4,027.2,000.0,036.7,030.0,16.5,0000.0,0011.08,0003.62,0002.66
2023-09-08 10:13:00,SystemResetWarning,0836.2,5.00,000.00,028.4,027.2,000.0,036.7,030.0,16.5,0000.0,0010.68,0003.63,0002.69
2023-09-08 10:14:00,SystemResetWarning,0836.3,5.00,000.00,028.5,027.2,000.0,036.8,030.0,16.5,0000.0,0010.21,0003.62,0002.72
2023-09-08 10:15:00,SystemResetWarning,0836.3,4.99,000.00,028.5,027.2,000.0,036.8,030.0,16.5,0000.0,0010.27,0003.65,0002.77
2023-09-08 10:16:00,SystemResetWarning,0836.2,4.99,000.00,028.5,027.2,000.0,036.8,030.0,16.5,0000.0,0010.38,0003.65,0002.80
2023-09-08 10:17:00,SystemResetWarning,0836.3,5.01,000.00,028.5,027.2,000.0,036.8,030.0,16.6,0000.0,0010.83,0003.67,0002.82
2023-09-08 10:18:00,SystemResetWarning,0836.3,5.01,000.00,028.5,027.3,000.0,036.8,030.0,16.6,0000.0,0012.01,0003.70,0002.84
2023-09-08 10:19:00,SystemResetWarning,0836.2,5.00,000.00,028.5,027.3,000.0,036.8,030.1,16.6,0000.0,0011.44,0003.70,0002.86
2023-09-08 10:20:00,SystemResetWarning,0836.2,4.99,000.00,028.5,027.3,000.0,036.8,030.0,16.6,0000.2,0011.30,0003.76,0002.90
2023-09-08 10:21:00,SystemResetWarning,0836.3,4.99,000.00,028.5,027.3,000.0,036.8,030.1,16.5,0000.2,0012.27,0003.83,0002.91
2023-09-08 10:22:00,SystemResetWarning,0836.2,5.00,000.00,028.6,027.3,000.0,036.8,030.1,16.5,0000.8,0012.55,0003.84,0002.94
2023-09-08 10:23:00,SystemResetWarning,0836.2,5.01,000.00,028.6,027.3,000.0,036.9,030.1,16.5,0001.1,0013.05,0003.87,0002.97
2023-09-08 10:24:00,SystemResetWarning,0836.3,5.01,000.00,028.6,027.3,000.0,036.9,030.1,16.5,0001.5,0013.93,0003.92,0002.98
2023-09-08 10:25:00,SystemResetWarning,0836.3,5.01,000.00,028.6,027.3,000.0,036.9,030.1,16.5,0000.0,0014.24,0003.96,0003.00
2023-09-08 10:26:00,SystemResetWarning,0836.2,5.00,000.00,028.6,027.3,000.0,036.9,030.1,16.5,0000.0,0014.61,0003.97,0003.01
2023-09-08 10:27:00,SystemResetWarning,0836.3,4.99,000.00,028.6,027.3,000.0,036.9,030.1,16.5,0000.0,0014.52,0003.97,0003.01
2023-09-08 10:28:00,SystemResetWarning,0836.3,5.00,000.00,028.6,027.3,000.0,036.9,030.2,16.5,0000.0,0013.95,0003.96,0003.00
2023-09-08 10:29:00,SystemResetWarning,0836.4,5.01,000.00,028.6,027.4,000.0,036.9,030.2,16.4,0000.0,0013.42,0003.96,0002.99
2023-09-08 10:30:00,SystemResetWarning,0836.3,5.01,000.00,028.6,027.4,000.0,036.9,030.2,16.4,0000.0,0013.57,0003.93,0002.99
2023-09-08 10:31:00,SystemResetWarning,0836.4,5.00,000.00,028.7,027.4,000.0,036.9,030.2,16.3,0000.0,0013.37,0003.90,0002.95
2023-09-08 10:32:00,SystemResetWarning,0836.4,4.99,000.00,028.7,027.4,000.0,036.9,030.2,16.3,0000.0,0012.36,0003.82,0002.95
2023-09-08 10:33:00,SystemResetWarning,0836.3,4.99,000.00,028.7,027.4,000.0,036.9,030.2,16.4,0000.0,0011.93,0003.80,0002.95
2023-09-08 10:34:00,SystemResetWarning,0836.4,5.00,000.00,028.7,027.4,000.0,037.0,030.2,16.5,0000.0,0011.54,0003.75,0002.91
2023-09-08 10:35:00,SystemResetWarning,0836.4,5.00,000.00,028.7,027.4,000.0,037.0,030.3,16.5,0000.0,0010.64,0003.67,0002.87
2023-09-08 10:36:00,SystemResetWarning,0836.4,5.00,000.00,028.7,027.4,000.0,037.0,030.2,16.5,0000.0,0010.43,0003.64,0002.83
2023-09-08 10:37:00,SystemResetWarning,0836.4,5.00,000.00,028.7,027.4,000.0,037.0,030.3,16.4,0000.0,0010.32,0003.62,0002.77
2023-09-08 10:38:00,SystemResetWarning,0836.4,5.01,000.00,028.7,027.4,000.0,037.0,030.2,16.2,0000.0,0010.83,0003.62,0002.72
2023-09-08 10:39:00,SystemResetWarning,0836.4,5.00,000.00,028.7,027.4,000.0,037.0,030.2,16.1,0000.0,0010.93,0003.66,0002.71
2023-09-08 10:40:00,SystemResetWarning,0836.4,5.00,000.00,028.7,027.4,000.0,037.0,030.3,16.1,0000.0,0010.59,0003.64,0002.71
2023-09-08 10:41:00,SystemResetWarning,0836.4,5.00,000.00,028.7,027.4,000.0,037.0,030.3,16.1,0000.0,0009.71,0003.64,0002.73
2023-09-08 10:42:00,SystemResetWarning,0836.4,5.00,000.00,028.8,027.4,000.0,037.0,030.3,16.2,0000.0,0010.02,0003.66,0002.73
2023-09-08 10:43:00,SystemResetWarning,0836.4,5.00,000.00,028.8,027.4,000.0,037.0,030.3,16.2,0000.0,0010.39,0003.69,0002.74
2023-09-08 10:44:00,SystemResetWarning,0836.4,4.99,000.00,028.8,027.4,000.0,037.1,030.3,16.2,0000.0,0010.34,0003.68,0002.72
2023-09-08 10:45:00,SystemResetWarning,0836.4,5.01,000.00,028.8,027.4,000.0,037.1,030.3,16.2,0000.0,0010.14,0003.67,0002.71
2023-09-08 10:46:00,SystemResetWarning,0836.3,5.01,000.00,028.8,027.4,000.0,037.1,030.3,16.2,0000.0,0010.03,0003.69,0002.70
2023-09-08 10:47:00,SystemResetWarning,0836.4,5.00,000.00,028.8,027.5,000.0,037.1,030.3,16.2,0000.0,0009.80,0003.66,0002.69
2023-09-08 10:48:00,SystemResetWarning,0836.4,5.00,000.00,028.8,027.5,000.0,037.1,030.3,16.2,0000.0,0009.70,0003.64,0002.69
2023-09-08 10:49:00,SystemResetWarning,0836.4,4.99,000.00,028.8,027.5,000.0,037.1,030.3,16.2,0000.0,0011.44,0003.58,0002.67
2023-09-08 10:50:00,SystemResetWarning,0836.4,5.00,000.00,028.8,027.5,000.0,037.1,030.3,16.1,0000.0,0011.59,0003.50,0002.66
2023-09-08 10:51:00,SystemResetWarning,0836.4,4.99,000.00,028.8,027.5,000.0,037.1,030.4,16.1,0000.0,0011.16,0003.45,0002.62
2023-09-08 10:52:00,SystemResetWarning,0836.3,5.01,000.00,028.8,027.4,000.0,037.1,030.3,16.1,0000.0,0011.11,0003.43,0002.59
2023-09-08 10:53:00,SystemResetWarning,0836.4,4.99,000.00,028.8,026.0,000.0,037.1,030.0,16.1,0000.0,0010.49,0003.42,0002.58
2023-09-08 10:54:00,SystemResetWarning,0836.4,5.01,000.00,028.6,024.5,000.0,037.0,029.6,16.2,0000.0,0010.95,0003.40,0002.58
2023-09-08 10:55:00,SystemResetWarning,0836.4,5.02,000.00,028.5,024.3,000.0,036.9,029.4,16.4,0000.0,0011.66,0003.40,0002.57
2023-09-08 10:56:00,SystemResetWarning,0836.4,5.00,000.00,028.3,024.5,000.0,036.9,029.3,16.6,0000.0,0012.64,0003.40,0002.58
2023-09-08 10:57:00,SystemResetWarning,0836.4,4.99,000.00,028.3,024.9,000.0,036.9,029.3,16.6,0000.0,0013.31,0003.42,0002.59
2023-09-08 10:58:00,SystemResetWarning,0836.4,5.01,000.00,028.2,025.2,000.0,036.8,029.4,16.6,0000.5,0014.17,0003.45,0002.63
2023-09-08 10:59:00,SystemResetWarning,0836.4,5.00,000.00,028.2,025.5,000.0,036.8,029.4,16.7,0002.2,0014.19,0003.47,0002.67
